Total_Precipitation_Accumulation
3.07 3.41 3.31 3.37 3.07 3.23 3.55 3.84 3.87 4.12 4.43 4.32 3.80 3.57 3.69 3.60 3.29 3.06 3.22 3.46 3.56 3.56 3.98 4.29 3.93 3.63 3.52 3.18 2.87 2.69 2.55 2.46 2.28 2.04 1.87 1.77 1.65 1.48 1.37 1.41 1.27 1.13 1.01
3.32 3.63 3.51 3.39 3.04 3.06 3.41 3.75 3.79 4.13 4.28 4.35 3.82 3.49 3.50 3.45 3.13 2.83 2.88 3.38 3.47 3.39 3.64 4.08 4.22 4.12 3.94 3.60 3.23 2.92 2.67 2.51 2.42 2.24 1.97 1.79 1.69 1.59 1.58 1.48 1.37 1.30 1.15
3.56 3.88 3.80 3.35 3.07 3.18 3.41 3.40 3.53 4.04 3.97 3.91 3.79 3.67 3.57 3.37 3.05 2.96 2.90 3.09 2.98 3.15 3.45 3.63 3.96 4.28 4.35 4.22 3.98 3.56 3.19 2.76 2.49 2.29 2.03 1.81 1.70 1.57 1.56 1.54 1.47 1.40 1.26
3.18 3.60 3.37 2.93 2.95 3.14 3.39 3.45 3.40 3.79 3.94 3.96 4.00 3.81 3.62 3.40 2.99 2.89 2.89 2.89 2.88 2.62 2.94 3.32 3.74 4.09 4.52 4.80 4.87 4.72 4.27 3.53 2.91 2.57 2.23 2.01 1.83 1.62 1.45 1.43 1.49 1.48 1.32
2.27 2.71 2.71 2.62 2.63 2.92 3.03 2.69 2.96 3.27 3.50 3.67 3.40 3.32 2.97 2.77 2.70 2.50 2.47 2.40 2.59 2.71 2.88 2.97 3.37 3.70 4.36 5.25 5.81 5.76 5.28 4.38 3.54 3.09 2.74 2.45 2.27 1.97 1.62 1.44 1.45 1.43 1.34
2.10 2.38 2.43 2.28 2.25 2.53 2.69 2.83 3.13 3.17 3.03 3.10 2.68 2.71 2.70 2.46 2.47 2.43 2.24 2.22 2.33 2.30 2.59 2.92 3.23 3.03 3.59 4.61 5.41 5.66 5.57 5.12 4.27 3.61 3.26 3.07 2.97 2.58 2.03 1.75 1.65 1.53 1.43
2.27 2.57 2.39 2.45 2.31 2.37 2.47 2.54 2.77 2.87 2.64 2.82 3.18 2.99 2.67 2.40 2.35 2.28 2.20 2.28 2.29 2.41 2.62 3.02 3.23 3.29 3.17 3.21 3.73 4.53 5.23 5.53 5.28 4.56 3.92 3.52 3.40 3.00 2.42 2.17 1.95 1.78 1.73
2.20 2.15 2.40 2.25 2.22 2.47 2.44 2.52 2.74 2.71 2.43 2.62 3.11 3.32 3.09 3.04 2.50 1.86 2.06 2.19 2.24 2.50 2.57 2.56 2.81 3.32 3.34 3.52 2.91 3.29 4.48 5.27 5.80 5.82 5.13 4.31 3.88 3.39 2.83 2.59 2.33 2.10 1.98
1.86 1.98 2.05 2.05 2.21 2.17 2.40 2.52 2.60 2.80 2.76 2.53 2.54 3.01 3.02 2.99 2.71 2.13 1.84 1.96 2.26 2.57 2.58 2.60 2.60 2.95 3.24 3.64 3.48 3.01 3.34 3.95 5.04 6.06 6.18 5.33 4.27 3.50 3.13 3.00 2.88 2.62 2.37
1.84 1.90 1.95 2.13 2.20 2.10 2.46 2.18 2.32 2.69 2.85 2.58 2.56 2.47 2.51 2.71 2.78 2.60 2.20 1.91 2.10 2.25 2.40 2.38 2.51 2.84 3.11 3.34 3.39 2.80 2.48 2.75 3.72 5.01 5.92 5.92 5.11 4.08 3.53 3.53 3.73 3.54 3.14
1.94 1.76 1.96 2.27 2.37 2.23 2.29 2.36 2.67 2.62 2.59 2.54 2.49 2.41 2.51 2.59 2.42 2.48 2.46 2.26 2.09 1.76 1.92 2.24 2.48 2.64 2.81 3.07 3.34 2.99 2.78 2.59 2.69 3.28 4.05 4.82 5.27 4.92 4.46 4.36 4.66 4.85 4.62
1.97 1.88 2.05 2.34 2.38 2.44 2.41 2.34 2.43 2.50 2.61 2.67 2.57 2.38 2.45 2.55 2.55 2.67 2.41 2.32 2.32 1.98 2.06 2.33 2.46 2.61 2.59 2.75 2.75 2.72 2.66 2.62 2.56 2.54 2.78 3.25 3.96 4.54 4.75 4.90 5.26 5.62 5.76
1.78 1.92 2.04 2.29 2.31 2.34 2.27 2.46 2.48 2.47 2.58 2.56 2.50 2.46 2.36 2.26 2.39 2.55 2.55 2.35 2.31 2.18 2.39 2.35 2.37 2.45 2.42 2.67 2.84 2.80 2.39 2.39 2.28 2.22 2.29 2.50 2.85 3.47 4.11 4.51 4.95 5.47 5.83
1.49 1.62 1.80 1.87 1.96 2.01 1.98 2.48 2.40 2.46 2.58 2.42 2.24 2.62 2.50 2.19 2.32 2.44 2.66 2.91 2.72 2.57 2.62 2.50 2.43 2.47 2.63 2.77 2.93 2.89 2.40 2.40 2.22 2.04 1.93 1.92 2.01 2.27 2.74 3.15 3.51 3.93 4.40
1.54 1.60 1.68 1.90 2.04 2.12 2.19 2.48 2.42 2.42 2.62 2.42 2.36 2.52 2.44 2.34 2.31 2.25 2.63 3.03 3.23 3.01 2.80 2.67 2.41 2.32 2.44 2.57 2.68 2.32 2.13 2.27 2.15 1.99 1.83 1.73 1.72 1.81 2.01 2.21 2.32 2.42 2.59
1.66 1.79 1.88 2.04 2.16 2.14 2.18 2.41 2.37 2.49 2.61 2.48 2.47 2.52 2.44 2.37 2.49 2.39 2.50 2.80 3.07 3.26 3.01 2.49 2.33 2.22 2.25 2.06 2.21 1.93 1.95 2.14 2.00 1.85 1.75 1.70 1.68 1.69 1.73 1.80 1.87 1.89 1.93
1.76 1.84 1.95 2.11 2.15 2.23 2.37 2.51 2.33 2.45 2.57 2.72 2.61 2.64 2.68 2.79 2.76 2.66 2.72 2.79 2.97 3.27 3.16 2.59 2.46 2.45 2.32 2.08 2.03 1.92 1.86 1.94 1.95 2.04 1.86 1.74 1.62 1.53 1.52 1.55 1.61 1.68 1.73
2.07 2.03 2.10 2.18 2.07 2.14 2.39 2.46 2.43 2.49 2.54 2.57 2.75 3.02 2.93 2.99 2.94 2.77 2.88 2.82 2.90 3.24 3.12 2.78 2.74 2.74 2.68 2.42 2.26 2.06 1.84 1.82 1.95 2.18 1.90 1.75 1.67 1.59 1.56 1.53 1.52 1.51 1.53
2.34 2.40 2.42 2.29 2.22 2.22 2.30 2.40 2.52 2.54 2.56 2.61 2.74 2.82 2.88 3.12 3.00 2.89 2.80 2.75 2.86 3.04 3.17 2.89 2.80 2.99 2.84 2.54 2.41 2.12 1.91 2.00 1.78 1.90 1.85 1.79 1.76 1.68 1.62 1.54 1.55 1.54 1.48
2.41 2.55 2.53 2.48 2.42 2.31 2.17 2.16 2.25 2.34 2.49 2.64 2.67 2.59 2.69 2.94 3.03 3.02 2.80 2.79 2.94 3.07 3.12 3.00 2.87 3.00 3.02 2.92 2.75 2.50 2.37 2.19 1.99 1.83 1.90 1.81 1.80 1.73 1.61 1.49 1.51 1.53 1.52
2.36 2.53 2.61 2.67 2.62 2.41 2.14 2.22 2.38 2.38 2.55 2.55 2.45 2.35 2.35 2.61 2.83 2.91 2.63 2.66 2.83 2.86 2.88 2.91 2.87 2.94 3.01 3.16 2.99 2.68 2.43 2.28 2.04 1.85 1.87 1.72 1.70 1.62 1.63 1.64 1.60 1.50 1.35
2.76 2.78 2.67 2.64 2.57 2.18 2.35 2.43 2.43 2.44 2.57 2.57 2.47 2.36 2.25 2.21 2.23 2.40 2.51 2.62 2.76 2.74 2.75 2.94 3.09 3.13 3.13 3.19 3.18 2.95 2.68 2.42 2.18 1.94 2.04 2.02 1.92 1.86 1.72 1.58 1.59 1.49 1.35
3.15 3.13 2.97 2.79 2.62 2.56 2.54 2.35 2.31 2.17 2.21 2.29 2.39 2.35 2.04 1.85 1.96 1.88 2.10 2.27 2.36 2.44 2.52 2.75 2.92 3.00 3.13 3.27 3.37 3.08 2.90 2.69 2.40 2.16 2.19 2.01 1.92 1.91 1.82 1.77 1.83 1.58 1.46
3.11 3.12 3.00 2.85 2.71 2.62 2.54 2.26 2.23 2.00 1.99 2.02 2.11 2.14 2.05 1.90 1.89 2.01 2.02 1.92 1.84 1.91 2.13 2.18 2.31 2.59 2.84 3.07 3.28 3.18 3.10 2.78 2.43 2.19 2.16 1.99 1.82 1.81 1.82 1.85 1.92 1.73 1.55
2.86 2.75 2.65 2.64 2.61 2.65 2.67 2.36 2.18 1.92 1.96 1.94 1.96 1.97 1.98 1.86 2.03 2.00 1.93 1.89 1.86 1.85 1.94 2.07 2.09 2.25 2.50 2.68 2.86 2.96 2.93 2.78 2.48 2.25 2.25 2.23 1.99 1.93 1.91 1.77 1.71 1.76 1.62
2.75 2.67 2.52 2.51 2.51 2.48 2.55 2.22 2.07 1.88 1.90 1.89 1.94 1.95 1.99 1.90 1.93 1.83 1.74 1.82 1.78 1.78 1.88 1.89 1.91 1.93 2.00 2.33 2.73 2.57 2.62 2.69 2.44 2.13 1.94 2.07 2.06 2.13 2.07 1.73 1.51 1.48 1.47